Weather History for KSGH - December, 2013

Change the Weather History Date:

Monday, December 23, 2013

  Actual Average (KDAY) Record (KDAY)
Temperature  
Mean Temperature 32 °F 29 °F  
Max Temperature 37 °F 36 °F 59 °F (1957)
Min Temperature 25 °F 22 °F -8 °F (1960)
Degree Days  
Heating Degree Days 34 36  
Month to date heating degree days 755  
Since 1 July heating degree days 1866  
Cooling Degree Days 0 0  
Month to date cooling degree days 0  
Year to date cooling degree days 891  
Moisture  
Dew Point 27 °F    
Average Humidity 82    
Maximum Humidity 97    
Minimum Humidity 69    
Precipitation  
Precipitation 0.00 in 0.10 in 2.65 in (1941)
Month to date precipitation 2.30  
Year to date precipitation 40.23  
Snow  
Snow 0.00 in 0.10 in 4.10 in (1961)
Month to date snowfall 2.9  
Since 1 July snowfall 3.9  
Snow Depth -    
Sea Level Pressure  
Sea Level Pressure 30.24 in    
Wind  
Wind Speed 12 mph (West)    
Max Wind Speed 16 mph    
Max Gust Speed 21 mph    
Visibility 6 miles    
Events Rain    
T = Trace of Precipitation, MM = Missing Value Source: NWS Daily Summary

Daily Weather History Graph

Daily Weather History Graph

Search for Another Location

Airport or City:

Trip Planner

Search our weather history database for the weather conditions in past years. The results will help you decide how hot, cold, wet, or windy it might be!

Date:

Astronomy

Dec. 23, 2013 Rise Set
Actual Time 7:54 AM EST 5:15 PM EST
Civil Twilight 7:23 AM EST 5:45 PM EST
Nautical Twilight 6:49 AM EST 6:19 PM EST
Astronomical Twilight 6:16 AM EST 6:52 PM EST
Moon 11:23 PM EST (12/23) 11:19 AM EST (12/23)
Length of Visible Light 10h 21m
Length of Day
9h 20m
Waning Gibbous, 68% of the Moon is Illuminated
Dec 23
Waning Gibbous
Dec 25
Last Quarter
Jan 1
New
Jan 7
First Quarter
Jan 15
Full

Hourly Weather History & Observations

Time (EST) Temp. Windchill Dew Point Humidity Pressure Visibility Wind Dir Wind Speed Gust Speed Precip Events Conditions
12:09 AM 37.4 °F 29.8 °F 35.6 °F 93% 30.03 in 6.0 mi West 11.5 mph - 0.00 in Rain Light Rain
12:56 AM 36.0 °F 28.5 °F 34.0 °F 93% 30.06 in 5.0 mi WSW 10.4 mph - 0.00 in Rain Light Rain
1:09 AM 35.6 °F 27.1 °F 33.8 °F 93% 30.04 in 5.0 mi West 12.7 mph - 0.00 in Rain Light Rain
1:24 AM 35.6 °F 27.1 °F 33.8 °F 93% 30.05 in 5.0 mi West 12.7 mph - 0.00 in Rain Light Rain
1:41 AM 35.6 °F 28.0 °F 33.8 °F 93% 30.06 in 6.0 mi West 10.4 mph - 0.00 in Rain Light Rain
1:56 AM 34.9 °F 26.2 °F 34.0 °F 97% 30.08 in 6.0 mi West 12.7 mph - 0.00 in Rain Light Rain
2:30 AM 35.6 °F 28.6 °F 33.8 °F 93% 30.07 in 5.0 mi WNW 9.2 mph - 0.00 in   Overcast
2:56 AM 34.9 °F 27.1 °F 32.9 °F 92% 30.10 in 7.0 mi WNW 10.4 mph - 0.00 in   Overcast
3:27 AM 33.8 °F 25.3 °F 32.0 °F 93% 30.10 in 7.0 mi West 11.5 mph - N/A   Overcast
3:56 AM 34.0 °F 24.2 °F 31.1 °F 89% 30.13 in 7.0 mi West 15.0 mph - N/A   Overcast
4:56 AM 32.9 °F 22.8 °F 30.0 °F 89% 30.14 in 7.0 mi WNW 15.0 mph - N/A   Overcast
5:56 AM 32.0 °F 23.0 °F 26.1 °F 79% 30.16 in 7.0 mi WNW 11.5 mph - N/A   Overcast
6:56 AM 32.0 °F 21.6 °F 27.1 °F 82% 30.19 in 7.0 mi WNW 15.0 mph - N/A   Overcast
7:56 AM 31.1 °F 21.9 °F 26.1 °F 82% 30.25 in 7.0 mi WNW 11.5 mph - 0.00 in   Overcast
8:56 AM 31.1 °F 20.1 °F 25.2 °F 79% 30.28 in 5.0 mi West 16.1 mph - 0.00 in   Overcast
9:56 AM 31.1 °F 20.9 °F 25.2 °F 79% 30.31 in 6.0 mi WNW 13.8 mph - 0.00 in   Haze
10:56 AM 31.1 °F 20.5 °F 24.1 °F 75% 30.34 in 6.0 mi West 15.0 mph - 0.00 in   Haze
11:56 AM 31.1 °F 21.4 °F 23.0 °F 72% 30.34 in 7.0 mi WNW 12.7 mph 20.7 mph N/A   Overcast
12:56 PM 31.1 °F 21.9 °F 23.0 °F 72% 30.34 in 6.0 mi West 11.5 mph - N/A   Haze
1:56 PM 31.1 °F 21.4 °F 22.1 °F 69% 30.34 in 6.0 mi West 12.7 mph - N/A   Haze
2:56 PM 30.0 °F 21.7 °F 22.1 °F 72% 30.35 in 6.0 mi WNW 9.2 mph - N/A   Haze
3:56 PM 30.0 °F 20.5 °F 23.0 °F 75% 30.36 in 6.0 mi West 11.5 mph - N/A   Haze
4:56 PM 29.1 °F 19.4 °F 23.0 °F 78% 30.37 in 6.0 mi WSW 11.5 mph - N/A   Haze
5:56 PM 28.0 °F 20.8 °F 22.1 °F 78% 30.38 in 7.0 mi West 6.9 mph - N/A   Overcast
6:56 PM 28.0 °F 21.7 °F 21.0 °F 75% 30.38 in 7.0 mi WNW 5.8 mph - N/A   Overcast
7:56 PM 27.1 °F 16.4 °F 20.1 °F 75% 30.39 in 7.0 mi West 12.7 mph - N/A   Overcast
8:56 PM 27.1 °F 17.5 °F 21.0 °F 78% 30.38 in 7.0 mi West 10.4 mph - N/A   Overcast
9:56 PM 27.1 °F 15.9 °F 21.0 °F 78% 30.39 in 7.0 mi West 13.8 mph - N/A   Overcast
10:56 PM 26.1 °F 16.2 °F 20.1 °F 78% 30.39 in 7.0 mi West 10.4 mph - N/A   Overcast
11:56 PM 25.2 °F 15.1 °F 18.1 °F 75% 30.38 in 7.0 mi WNW 10.4 mph - 0.00 in   Overcast